www.pogodaiklimat.ru

Погода и климат >> Архив погоды >> Россия >> Краснодарский край >> Сочи аэропорт (Адлер)


ПОГОДА в Сочи аэропорту (Адлер)

  • Прогноз погоды в Сочи аэропорту (Адлер)
  • Монитор погоды в Сочи аэропорту (Адлер)
  • Климат города

АРХИВ ПОГОДЫ в Сочи аэропорту (Адлер)

Время (UTC), дата Ветер
(напр.,м/с)
 
Видим.   Явления Облачность Т
(С)
Тd
(С)
f
(%)
Тe
(С)
Тes
(С)
Комфортность P
(гПа)
Po
(гПа)
Тmin
(С)
Tmax
(С)
R
(мм)
S
(см)
18 18.03 З 3 4000 м в посл. час ливневой дождь 10/10 300 м
[Cb cap]
+7.5 +5.0 84 +5 +5 1016.5 1014.7
21 18.03 4000 м н/о +6.3 +5.6 95 +5 +5 1016.5 1014.6
00 19.03 ЮВ 4 4000 м 3/3 1500 м
[Sc]
+6.3 +4.2 86 +3 +3 1015.4 1013.5
03 19.03 ЮВ 2 4000 м 8/3 400 м
[St Ac trans]
+6.6 +4.8 88 +4 +4 1013.8 1011.9 +5.3 2
06 19.03 ЮВ 4 10 км 9/5 330 м
[St Ac trans]
+7.3 +5.8 90 +4 +5 1013.5 1011.7
09 19.03 В 5 20 км 10/3 300 м
[St Ac trans]
+8.4 +4.5 76 +5 +7 1012.4 1010.6
12 19.03 штиль 0 20 км 10/0
[Cs]
+10.3 +5.9 74 +10 +14 1010.5 1008.7
15 19.03 В 1 20 км 10/0
[Ac trans Ci fib]
+11.1 +3.6 60 +11 +11 1008.0 1006.2 +11.9
18 19.03 С 2 4000 м 10/0
[Ac und]
+8.3 +4.5 77 +7 +7 1007.4 1005.6
21 19.03 С 2 4000 м 10/0
[Ac und]
+7.9 +4.5 79 +6 +6 1004.9 1003.1
00 20.03 В 3 4000 м 10/0
[Ac und]
+10.9 +1.7 53 +9 +9 1003.1 1001.3
03 20.03 В 2 4000 м 10/0
[Ac und]
+9.9 +3.4 64 +9 +9 1004.2 1002.4 +7.3
06 20.03 В 3 10 км слабый ливневой дождь 10/10 480 м
[Cb cap]
+8.1 +7.4 95 +5 +5 1006.3 1004.5
09 20.03 З 3-10
{10}
10 км в посл. час ливневой дождь 10/10 330 м
[Cb cap]
+8.1 +7.0 93 +5 +5 1009.7 1007.9
12 20.03 З 5-13
{13}
10 км в посл. час ливневой дождь 10/10 870 м
[Cb cap]
+7.3 +3.8 78 +3 +3 1014.0 1012.1
15 20.03 ЮВ 2
{13}
10 км 9/9 1500 м
[Sc]
+7.3 +2.7 73 +5 +5 1016.1 1014.2 +10.0 7
18 20.03 СВ 3 4000 м 8/0
[Ac trans]
+4.2 +3.2 93 0 0 1016.7 1014.8
21 20.03 СВ 3 4000 м слабый ливневой дождь 10/10 1200 м
[Cb cap]
+4.7 +3.0 89 +1 +1 1016.2 1014.3
00 21.03 В 3 4000 м {ливн. осадки} 10/10 450 м
[Cb cap]
+5.0 +3.0 87 +1 +1 1015.8 1013.9
03 21.03 СВ 4 4000 м слабый ливневой дождь 10/10 700 м
[Cb cap]
+4.1 +2.9 92 -0 -0 1016.3 1014.4 +3.2 1
06 21.03 штиль 0 20 км слабый ливневой дождь 9/8 900 м
[Cb cap Ac trans]
+5.2 +4.3 94 +4 +5 1017.1 1015.2
09 21.03 С 2 20 км {ливн. осадки} 9/3 600 м
[Cb cap Ac trans]
+8.6 +2.5 65 +7 +11 1017.5 1015.7
12 21.03 ЮЗ 4 20 км {ливн. осадки} 9/5 600 м
[Cb cap Ac trans]
+9.4 +4.0 69 +7 +8 1017.8 1016.0
15 21.03 С 2 20 км 8/6 600 м
[Cb cap Ac trans]
+7.7 +1.9 67 +6 +6 1018.0 1016.2 0.4
18 21.03 СВ 3
{10}
4000 м 5/0
[Ac trans]
+3.8 +2.3 90 -0 -0 1018.7 1016.8
21 21.03 штиль 0 4000 м 9/0
[Ac trans]
+4.1 +2.3 88 +3 +3 1018.9 1017.0
00 22.03 штиль 0 4000 м 3/1 1000 м
[Cb cap Ac trans]
+2.2 +0.6 89 +1 +1 1018.8 1016.9
03 22.03 В 1 4000 м ясно +1.2 +0.1 92 -1 -1 1019.3 1017.4 +0.6
06 22.03 штиль 0 20 км ясно +6.7 +2.1 72 +6 +13 1020.6 1018.7 +0.1
09 22.03 З 5 20 км 10/3 1000 м
[Cu hum Ci fib]
+8.4 +3.0 69 +5 +9 1020.7 1018.9
12 22.03 З 5 10 км 10/5 700 м
[Cu hum Ac trans Ci fib]
+9.2 +4.0 70 +6 +7 1021.3 1019.5
15 22.03 З 4 10 км 4/3 600 м
[Cu hum Ac trans]
+7.9 +5.0 82 +5 +5 1020.9 1019.1 +10.3
18 22.03 С 1 4000 м 10/10 600 м
[Sc]
+7.2 +4.6 84 +6 +6 1021.9 1020.0
21 22.03 В 2 4000 м 10/10 720 м
[Sc]
+6.7 +4.6 86 +4 +4 1022.3 1020.4
00 23.03 В 2 4000 м слабый ливневой дождь 10/10 420 м
[Cb cap]
+6.0 +5.8 99 +3 +3 1022.2 1020.3
03 23.03 В 2 4000 м в посл. час ливневой дождь 10/10 420 м
[Cb cap]
+6.1 +5.0 93 +4 +4 1022.2 1020.3 +5.8 1
06 23.03 СВ 2 10 км {ливн. осадки} 10/10 800 м
[Sc]
+7.1 +5.1 87 +5 +5 1023.2 1021.3
09 23.03 ЮВ 3 10 км 10/10 1020 м
[Sc]
+9.0 +4.5 73 +7 +7 1023.4 1021.6
12 23.03 Ю 2 10 км 10/10 660 м
[Sc]
+8.6 +5.5 81 +7 +7 1023.5 1021.7
15 23.03 Ю 3 10 км 10/10 1000 м
[Sc]
+8.1 +5.1 81 +5 +5 1024.0 1022.2 +9.9
18 23.03 4000 м н/о +7.7 +5.3 85 +7 +7 1025.2 1023.3
21 23.03 В 2 4000 м ясно +4.4 +3.4 93 +2 +2 1025.8 1023.9
00 24.03 СВ 2 4000 м ясно +3.2 +2.2 93 0 0 1026.0 1024.1
03 24.03 В 2 20 км ясно +3.0 -0.1 80 0 0 1026.2 1024.3 +1.7
06 24.03 штиль 0 20 км ясно +8.7 +4.0 72 +8 +15 1026.3 1024.5
09 24.03 ЮВ 3 20 км 3/3 480 м
[Cu hum]
+10.3 +6.2 76 +8 +16 1026.2 1024.4
12 24.03 З 2 10 км 4/4 870 м
[Sc]
+10.1 +5.3 72 +9 +13 1025.7 1023.9
15 24.03 З 3 20 км ясно +8.9 +6.2 83 +6 +7 1024.7 1022.9 +11.4
18 24.03 С 1 4000 м ясно +6.5 +5.8 95 +5 +5 1024.5 1022.6
21 24.03 штиль 0 4000 м ясно +4.5 +3.3 92 +3 +3 1023.3 1021.4
00 25.03 штиль 0 4000 м ясно +3.0 +2.5 97 +2 +2 1022.5 1020.6
03 25.03 штиль 0 4000 м ясно +3.0 +2.5 97 +2 +2 1022.5 1020.6
06 25.03 З 2 20 км 10/0
[Ci fib]
+7.7 +4.5 80 +6 +10 1021.2 1019.4 +1.8
09 25.03 З 4 20 км 9/0
[Ac trans Ci fib]
+9.5 +5.3 75 +7 +12 1019.9 1018.1
12 25.03 З 5 20 км 10/0
[Ac As Ci fib]
+9.4 +6.1 80 +6 +9 1019.0 1017.2

 

Местоположение метеостанции Сочи аэропорт (Адлер) (Краснодарский край, Россия): широта 43.43 долгота 39.90 высота над уровнем моря 15 м.

В архиве по умолчанию представлена погода в Сочи аэропорту (Адлер) за последнюю неделю. Архивные данные за месяц целиком и за предыдущие месяцы, начиная с января 2011 года, Вы можете получить, выбрав интересующий диапазон дат из раскрывающегося списка и нажав кнопку "Ввод!".

Внимание! Время в таблицах - всемирное. Для получения местного времени необходимо прибавить поправку, которая в Сочи аэропорту (Адлер) равна 3 ч.

Смотрите также архив погоды в соседних городах и на ближайших метеорологических станциях:

Погода в Сочи (Краснодарский край, Россия) (20 км)
Погода в Кепше (Краснодарский край, Россия) (24 км)
Погода в Красной Поляне (Краснодарский край, Россия) (37 км)
Погода в Гузерипле (Адыгея, Россия) (66 км)
Погода в Туапсе (Краснодарский край, Россия) (100 км)
Погода в Псебае (Краснодарский край, Россия) (105 км)
Погода в Горном (Краснодарский край, Россия) (107 км)
Погода в Шунтуке (Адыгея, Россия) (117 км)
Погода в Майкопе (Адыгея, Россия) (133 км)
Погода в Джубге (Краснодарский край, Россия) (138 км)

Пояснения к столбцам:

Ветер - указаны скорость ветра в м/с - средняя за 10 мин, порывы в срок и между сроками (в фигурных скобках) и направление, откуда дует ветер: С - северный, СВ - северо-восточный, В - восточный, ЮВ - юго-восточный, Ю - южный, ЮЗ - юго-западный, З - западный, СЗ - северо-западный.
Видимость - горизонтальная дальность видимости в метрах или километрах. При видимости от 1 до 10 км при отсутствии осадков обычно наблюдается дымка, при ухудшении видимости до 1 км и менее - туман. В сухую погоду видимость может ухудшаться дымом, пылью или мглою.
Явления - указаны атмосферные явления, наблюдавшиеся в срок или в последний час перед сроком; фигурными скобками обозначены явления, наблюдавшиеся между сроками (за 1-3 часа до срока); квадратными скобками обозначены град или гололедные отложения с указанием их диаметра в мм.
Облачность - указаны через наклонную черту общая и нижняя облачность в баллах и высота нижней границы облаков в метрах; квадратными скобками обозначены формы облаков: Ci - перистые, Cs - перисто-слоистые, Cc - перисто-кучевые, Ac - высококучевые, As - высокослоистые, Sc - слоисто-кучевые, Ns - слоисто-дождевые, Cu - кучевые, Cb - кучево-дождевые. Подробнее классификацию облаков см. в Атласе облаков (PDF).
T - Температура воздуха - температура, измеренная на высоте 2 м над землей.
Td - Температура точки росы - температура, при понижении до которой содержащийся в воздухе водяной пар достигнет насыщения.
f - Относительная влажность воздуха - влажноcть воздуха, измеренная на высоте 2 м над землей.
Te - Эффективная температура - температура, которую ощущает одетый по сезону человек в тени. Характеристика душности погоды. При расчете учитывается влияние влажности воздуха и скорости ветра на теплоощущения человека.
Tes - Эффективная температура на солнце - температура, которую ощущает человек, с поправкой на солнечный нагрев. Характеристика знойности погоды. Зависит от высоты солнца над горизонтом, облачности и скорости ветра. Ночью, в пасмурную погоду, а также при ветре 12 м/с и более поправка равна нулю.
P - Атмосферное давление - приведенное к уровню моря атмосферное давление.
Po - Атмосферное давление - измеренное на уровне метеостанции атмосферное давление.
Tmin - Минимальная температура - минимум температуры воздуха на высоте 2 м над землей.
Tmax - Максимальная температура - максимум температуры воздуха на высоте 2 м над землей.
R - Количество осадков - Количество выпавших осадков, мм. При наведении курсора мыши на число - период времени, за который выпало указанное количество осадков.
S - Снежный покров - Высота снежного покрова, см. При наведении курсора мыши на число - состояние снежного покрова и степень покрытия местности в баллах.